Location: Elk Horn Observatory
(36.6768°N, 80.8309°W)
Time: 02:00:44
(UTC-05:00)

Envisat - Pass Details

Date: 02 February 2019
Orbit: 764 x 766 km, 98.2° (Epoch: 17 February)

Event Time Altitude Azimuth Distance (km) Brightness Sun altitude
Rises 19:56:45 0° 193° (SSW) 3,215 6.4 -25.7°
Reaches altitude 10° 19:59:20 10° 204° (SSW) 2,293 5.7 -26.2°
Maximum altitude 20:03:41 29° 264° (W) 1,381 4.9 -27.0°
Drops below altitude 10° 20:08:04 10° 324° (NW) 2,306 5.9 -27.9°
Sets 20:10:40 0° 335° (NNW) 3,236 6.5 -28.4°
